STARLINK-34666

Last updated on Sat Aug 16 2025 00:02:05 GMT+0000 (Coordinated Universal Time)

1 64794U 25150E 25227.41429918 .00011960 00000+0 27589-3 0 9999 2 64794 69.9985 315.9878 0002735 249.2406 110.8483 15.42732859 5087
UTC large
Height (km)
Speed (km/s)
/
Latitude / Longitude
Inclination (degrees)
Orbital Period (minutes)
Azimuth
Elevation
Range (km)
Doppler Factor

Next 0 passes for location: London (51.5072 / 0.1276)

Sorry there are no passes over London.
STARLINK-34666